This demonstration page uses our WeatherBlox Daily Observations layout. Learn more.

38.89511, -77.03637

Hourly Observations for August 23, 2015

Temp ( °F °C ) Dew Point ( °F °C ) Humidity (%) Winds ( mph kmh ) Pressure ( in mb ) Visibility ( mi km ) Precip ( " mm )
12:52 am 00:52 Mostly Clear 70 21 55 13 60 60 NNW 6 9 30.06 1018 10 16.09344 0 0
1:52 am 01:52 Clear 70 21 55 13 60 60 NNW 6 9 30.06 1018 10 16.09344 0 0
2:52 am 02:52 Clear 66 19 55 13 68 68 NNW 7 11 30.06 1018 10 16.09344 0 0
3:52 am 03:52 Clear 66 19 55 13 68 68 N 7 11 30.06 1018 10 16.09344 0 0
4:52 am 04:52 Mostly Clear 64 18 57 14 78 78 N 6 9 30.06 1018 10 16.09344 0 0
5:52 am 05:52 Mostly Clear 66 19 55 13 68 68 NW 3 6 30.06 1018 10 16.09344 0 0
6:52 am 06:52 Mostly Cloudy 64 18 55 13 73 73 N 5 7 30.06 1018 10 16.09344 0 0
7:52 am 07:52 Mostly Cloudy 68 20 57 14 69 69 N 5 7 30.06 1018 10 16.09344 0 0
8:52 am 08:52 Mostly Cloudy 72 22 59 15 65 65 Calm 30.06 1018 10 16.09344 0 0
9:52 am 09:52 Mostly Cloudy 75 24 57 14 54 54 Calm 30.06 1018 10 16.09344 0 0
10:52 am 10:52 Mostly Cloudy 77 25 55 13 47 47 E 3 6 30.03 1017 10 16.09344 0 0
11:52 am 11:52 Mostly Cloudy 81 27 54 12 39 39 Calm 30.03 1017 10 16.09344 0 0
12:52 pm 12:52 Mostly Cloudy 81 27 54 12 39 39 Calm 30 1016 10 16.09344 0 0
1:52 pm 13:52 Mostly Cloudy 82 28 55 13 40 40 ENE 3 6 30 1016 10 16.09344 0 0
2:52 pm 14:52 Mostly Cloudy 84 29 57 14 40 40 SE 5 7 29.97 1015 10 16.09344 0 0
3:52 pm 15:52 Partly Cloudy 84 29 59 15 43 43 SSE 7 11 29.97 1015 10 16.09344 0 0
4:52 pm 16:52 Partly Cloudy 84 29 61 16 45 45 S 9 15 29.94 1014 10 16.09344 0 0
5:52 pm 17:52 Partly Cloudy 84 29 59 15 43 43 S 10 17 29.91 1013 10 16.09344 0 0
6:52 pm 18:52 Mostly Sunny 82 28 61 16 48 48 S 7 11 29.91 1013 10 16.09344 0 0
7:52 pm 19:52 Partly Cloudy 81 27 61 16 51 51 S 3 6 29.94 1014 10 16.09344 0 0
10:52 pm 22:52 Mostly Cloudy 75 24 63 17 65 65 S 7 11 29.94 1014 10 16.09344 0 0
11:52 pm 23:52 Mostly Cloudy 75 24 63 17 65 65 S 7 11 29.94 1014 10 16.09344 0 0

Powered by AerisWeather